Regional Weather Roundup
Issued by NWS

Home | Current Version | Previous Version | Graphics & Text | Print | Product List | Glossary On
Versions: 1 2 3 4 5 6 7 8 9 10 11 12 13 14 15 16 17 18 19 20 21 22 23 24 25 26 27 28 29 30 31 32 33 34 35 36 37 38 39 40 41 42 43 44 45 46 47 48 49 50
933
ASUS43 KDTX 170210
RWRMI
MICHIGAN HOURLY REGIONAL WEATHER ROUNDUP
NATIONAL WEATHER SERVICE DETROIT/PONTIAC MI
1000 PM EDT MON OCT 16 2017

NOTE: "FAIR" INDICATES FEW OR NO CLOUDS BELOW 12,000 FEET WITH NO
SIGNIFICANT WEATHER AND/OR OBSTRUCTION TO VISIBILITY.

MIZ047>049-052>055-059>063-066>070-074>076-081>083-170300-
SOUTHEAST LOWER MICHIGAN

CITY           SKY/WX    TMP DP  RH WIND       PRES   REMARKS
ADRIAN         CLEAR     44  40  85 CALM      30.27S
ALMA           CLEAR     45  38  76 SW6       30.21F
ANN ARBOR      CLEAR     38  38 100 CALM      30.25S
BAD AXE        CLEAR     42  34  72 SW5       30.21S
CARO           CLEAR     43  37  79 CALM      30.21F
DETROIT CITY   CLEAR     47  40  76 S3        30.26F
DETROIT        PTCLDY    47  41  80 S3        30.26F
FLINT          CLEAR     47  38  71 S8        30.24S
GROSSE ILE     CLEAR     48  39  70 CALM      30.25F
HILLSDALE      CLEAR     41  37  87 CALM      30.25S
HOWELL         CLEAR     46  39  79 S3        30.24S

CITY           SKY/WX    TMP DP  RH WIND       PRES   REMARKS
JACKSON        CLEAR     43  40  89 CALM      30.25S
LAMBERTVILLE   CLEAR     44  41  88 CALM      30.27S
LANSING        CLEAR     44  38  79 CALM      30.24S
LAPEER         FAIR      43  38  82 S3        30.23F
MASON          CLEAR     44  41  89 SE5       30.24S
MONROE         CLEAR     43  40  91 CALM      30.26S
MT. CLEMENS    CLEAR     42  38  83 SW6       30.23F
PONTIAC        PTCLDY    44  39  82 CALM      30.23F
PORT HOPE        N/A     46  35  65 S3        30.18F
PORT HURON     CLEAR     37  36  93 CALM      30.25S
TRI CITIES     CLOUDY    48  41  76 S6        30.21F
MIDLAND        FAIR      45  39  82 CALM      30.20S
TROY           CLEAR     48  37  67 S5        30.27S
SAGINAW HB     PTCLDY    46  41  81 S7        30.21S
$$
MIZ043>046-050>051-056>058-064>065-071>073-077>080-170300-
SOUTHWEST LOWER MICHIGAN

CITY           SKY/WX    TMP DP  RH WIND       PRES   REMARKS
BATTLE CREEK   CLEAR     44  40  85 S5        30.24F
BENTON HARBOR  CLEAR     46  40  79 S5        30.22F
BIG RAPIDS     CLEAR     43  37  79 CALM      30.18S
COLDWATER      CLEAR     42  42 100 CALM      30.25S
FREMONT        FAIR      46  40  81 S3        30.18F
HOLLAND        CLEAR     46  41  82 S6        30.21F
GRAND RAPIDS   PTCLDY    43  41  93 S9        30.20F
IONIA          FAIR      46  38  73 S6        30.21F
LUDINGTON      CLEAR     47  40  77 S5        30.15F
MARSHALL       CLEAR     42  41  98 CALM      30.24S
MOUNT PLEASANT CLEAR     48  38  68 S3        30.19F
MUSKEGON       PTCLDY    49  43  80 S8        30.18F
SOUTH HAVEN    CLEAR     45  42  90 CALM      30.22S
$$
MIZ016>042-170300-
NORTHERN LOWER MICHIGAN

CITY           SKY/WX    TMP DP  RH WIND       PRES   REMARKS
ALPENA         CLEAR     46  40  79 S8        30.15F
BEAVER ISLAND  MOCLDY    55  42  62 SW16G26   30.07S
BELLAIRE       CLEAR     46  38  74 S3        30.14S
CADILLAC       CLEAR     44  37  76 SW8       30.15F
CHARLEVOIX     CLEAR     49  40  70 S7        30.14S
FRANKFORT      CLEAR     49  41  72 SE5       30.13S
GAYLORD        CLEAR     42  35  76 SW10      30.12F
GRAYLING       CLEAR     44  35  70 SW5       30.15F
HARBOR SPRINGS CLEAR     47  39  75 S7        30.11S
HOUGHTON LAKE  CLEAR     46  37  71 SW8       30.17S
MANISTEE       CLEAR     42  39  89 CALM      30.15F
OSCODA         CLOUDY    45  38  75 SW6       30.17R
PELLSTON       CLEAR     47  39  74 S7        30.11S
ROGERS CITY    CLEAR     44  38  78 S6        30.14S
TRAVERSE CITY  PTCLDY    48  38  68 S5        30.13F
$$
MIZ007>008-015-170300-
EASTERN UPPER MICHIGAN

CITY           SKY/WX    TMP DP  RH WIND       PRES   REMARKS
KINROSS        CLEAR     46  39  76 S6        30.07F
MACKINAC ISLAN MOCLDY    51  41  68 S12G18    30.08F
NEWBERRY       CLEAR     43  42  93 S8        30.04F
S. S. MARIE    CLEAR     45  39  79 S6        30.06F
MUNISING         N/A     49  40  71 SW7       30.01F
$$
MIZ004>006-011>014-085-170300-
CENTRAL UPPER MICHIGAN

CITY           SKY/WX    TMP DP  RH WIND       PRES   REMARKS
MANISTIQUE     CLEAR     53  38  57 SW12G22   30.03F
ESCANABA       CLEAR     52  38  58 SW9       30.04F
MENOMINEE      CLEAR     51  40  65 SW7       30.08F
SAWYER-GWINN   CLEAR     43  36  75 S10       30.00F
$$
MIZ001>003-009>011-084-170300-
WESTERN UPPER MICHIGAN

CITY           SKY/WX    TMP DP  RH WIND       PRES   REMARKS
IRON MOUNTAIN  CLEAR     47  34  60 S6        30.03S
HOUGHTON       PTCLDY    47  36  65 S6        29.91F
COPPER HARBOR    N/A     53  42  66 VRB5      29.90F
IRONWOOD       CLEAR     52  34  50 SW15G22   29.94F
$$

ABBREVIATIONS USED IN REMARKS
   TC - TEMPERATURE IN CELSIUS
  WCI - WIND CHILL INDEX
   HX - HEAT INDEX
  VSB - VISIBILITY





USA.gov is the U.S. government's official web portal to all federal, state and local government web resources and services.